Theta_e
309 308 307 306 305 306 307 308 308 308 309 310 310 310 310 310 309 309 308 308 309 310 311 312 313 313 311 309 309 308 306 304 303 302 302 301 300 300 299 298 297 297 297 295 292 291 290 288 288 288 288 288 288 288 288 287 287 287 286 286 286 286 286 285 285 284 284 284 284 284 284 283 283 283 283 283 282 282 282 282 282 282 282 282 282
309 308 307 306 305 305 306 307 308 308 308 309 308 308 309 309 309 309 308 307 307 309 310 310 310 309 308 307 306 304 302 301 300 300 300 300 299 298 298 297 297 297 296 293 290 288 288 288 288 288 288 288 288 288 287 287 287 286 286 286 286 286 285 285 285 284 284 284 284 283 283 283 283 283 283 282 282 281 281 281 282 282 283 283 283
309 308 307 305 304 304 305 306 307 307 307 307 307 307 308 309 309 309 308 306 306 306 307 306 306 307 306 305 303 301 299 298 298 298 298 299 298 297 297 297 297 296 294 291 289 287 287 288 288 288 288 288 288 287 287 287 286 286 286 286 286 286 285 285 285 284 283 283 283 283 283 283 283 283 283 282 281 281 281 282 282 283 283 283 283
309 308 307 305 304 304 304 304 305 306 306 306 306 307 307 308 308 308 307 307 306 306 305 303 303 304 303 302 300 300 299 298 297 297 297 298 298 298 297 297 297 296 294 290 288 288 287 288 288 288 288 288 287 287 286 286 286 286 286 286 285 285 285 285 284 284 283 283 283 283 282 282 282 282 282 281 281 281 281 282 282 282 282 282 283
309 308 307 306 304 303 303 303 304 305 305 305 306 306 307 307 307 307 306 306 306 306 304 302 300 300 301 301 301 301 301 298 296 296 296 297 298 298 297 296 295 294 292 289 288 288 288 288 288 288 288 288 287 287 287 286 286 286 286 286 285 285 285 285 284 284 283 283 283 282 282 282 282 282 281 281 281 281 281 282 282 282 282 282 282
308 308 307 306 304 303 302 303 303 303 304 304 304 306 306 305 305 305 305 305 305 304 302 301 300 299 300 301 302 303 302 299 296 296 296 296 296 297 296 295 294 292 290 288 288 288 288 288 288 288 288 288 287 287 287 287 286 286 286 286 285 285 284 284 284 283 283 283 282 282 282 282 282 282 282 281 281 281 281 281 281 281 281 281 281
308 308 307 306 304 303 302 302 302 302 302 303 303 304 304 304 303 303 304 304 303 302 300 300 299 299 300 301 302 303 302 298 295 295 295 295 295 295 294 293 291 289 288 288 288 288 288 288 288 288 288 288 288 288 288 288 287 287 286 286 285 284 284 284 283 283 283 282 282 282 282 282 282 281 281 281 280 280 281 281 282 282 281 281 281
307 307 307 305 304 303 302 301 302 302 302 302 302 303 303 303 302 302 302 302 302 301 300 300 299 298 299 300 301 301 299 296 294 293 293 293 294 293 292 291 289 288 288 288 288 288 288 288 288 288 288 288 289 290 291 290 289 287 286 286 285 284 283 283 283 283 283 282 281 281 281 281 281 281 281 280 280 281 281 281 281 282 281 280 280
307 307 306 305 304 303 301 301 301 301 301 301 301 302 302 302 301 300 301 301 300 300 300 299 297 297 297 298 298 297 296 294 293 292 292 292 291 291 290 289 288 288 287 287 287 288 288 288 288 288 287 288 290 292 292 292 291 289 288 287 285 284 283 283 283 283 282 281 281 281 281 281 281 281 281 281 281 281 281 281 281 281 280 280 280
306 306 306 305 304 302 301 301 301 301 300 300 300 300 300 300 299 299 299 299 299 298 298 297 295 294 295 294 294 294 293 291 291 291 291 291 290 289 288 288 288 288 287 287 287 287 287 287 287 287 287 288 290 291 292 292 292 291 289 288 287 285 284 283 283 282 282 281 281 281 281 281 281 281 281 281 282 281 281 280 280 280 280 279 279
306 305 305 304 303 302 301 300 300 300 300 300 300 299 299 298 297 297 297 297 297 296 295 294 293 292 292 292 292 291 290 290 290 289 290 289 289 289 288 288 288 287 287 288 287 287 287 287 287 286 287 289 291 291 292 293 293 291 288 287 287 286 285 284 283 283 282 281 282 281 281 281 282 282 282 282 282 281 281 281 280 280 279 278 278
305 304 304 303 302 301 300 300 300 300 300 299 299 299 298 297 296 296 295 295 294 294 293 292 292 291 291 291 291 290 290 291 290 289 288 288 288 289 288 288 287 287 287 288 288 287 287 287 287 286 287 290 291 292 292 293 293 291 287 285 285 285 285 284 284 283 282 282 282 282 282 282 282 282 282 282 281 281 281 280 280 280 279 278 278
305 304 303 302 301 301 300 299 299 299 299 299 298 298 297 296 295 295 294 293 293 292 291 291 291 291 291 291 290 290 291 292 290 288 288 288 288 288 288 288 288 288 288 288 287 287 287 286 286 286 287 290 292 292 293 293 293 290 286 284 284 284 284 284 283 282 282 282 282 282 283 282 282 282 282 282 281 281 280 280 280 279 279 278 278
304 303 303 301 301 300 299 299 298 298 298 298 297 297 296 295 294 294 293 292 291 291 290 290 290 291 291 292 291 290 291 291 289 288 287 287 287 288 288 288 288 288 288 288 287 287 287 287 286 286 287 290 291 292 293 293 293 291 288 285 284 284 283 283 282 281 282 282 282 282 283 283 282 282 282 281 280 280 280 280 280 279 279 279 278
304 303 302 301 300 300 299 298 298 297 297 296 296 295 294 294 293 292 292 292 291 291 291 291 291 291 291 292 291 290 289 288 287 287 287 287 287 287 287 287 287 287 287 287 287 287 287 287 287 287 287 289 291 291 292 293 292 292 290 288 287 285 284 283 283 282 282 282 282 283 283 282 281 281 281 280 280 280 280 279 279 279 279 278 278
303 303 302 301 300 299 299 298 297 296 295 295 295 294 293 293 292 291 291 291 291 290 290 291 291 291 291 291 290 288 288 288 287 286 286 286 286 286 286 286 286 286 287 287 287 287 286 286 287 287 287 288 290 290 291 291 291 290 290 290 288 286 285 285 285 284 283 283 282 282 282 282 281 280 280 279 279 279 279 279 279 278 278 277 276
303 302 301 301 300 299 298 298 297 296 295 294 294 293 293 292 291 291 291 290 289 289 289 289 289 289 289 289 288 287 287 287 287 286 286 286 286 285 285 286 286 286 286 286 286 286 286 286 286 286 286 287 288 289 290 289 288 288 288 288 287 285 285 286 285 284 283 283 282 282 282 281 281 280 280 279 279 279 279 278 278 278 277 276 275
302 302 301 301 300 299 298 297 296 295 294 294 293 293 292 291 291 291 291 290 289 289 289 289 289 289 289 289 289 288 286 286 286 285 285 285 285 285 285 285 285 285 285 285 285 285 286 286 286 286 286 287 288 289 288 286 286 287 286 286 284 284 285 285 284 284 284 282 282 282 281 281 281 281 280 280 280 280 279 279 278 278 277 276 276
302 301 301 300 299 299 298 297 296 296 294 294 293 293 292 291 290 290 290 290 290 289 289 289 289 289 289 289 289 288 286 286 285 285 285 285 285 284 284 284 284 284 285 285 285 285 285 285 285 285 286 288 289 287 285 284 285 286 285 284 283 283 284 284 283 283 283 282 282 281 281 281 281 281 281 281 281 280 280 280 279 278 277 277 276
301 301 300 299 299 298 298 297 297 296 295 294 293 292 292 291 290 290 289 289 290 289 289 288 288 288 287 287 287 286 285 285 285 285 285 285 284 284 284 284 284 284 284 284 284 284 284 284 284 285 286 288 287 285 283 284 285 285 284 283 283 283 283 283 282 282 282 281 281 281 280 280 280 280 280 280 280 280 280 280 280 279 278 277 276
300 299 299 299 298 298 297 297 297 296 295 294 292 292 291 291 290 289 289 289 289 289 288 288 287 286 286 286 285 285 285 285 284 284 284 284 284 284 284 284 284 284 284 284 283 284 284 284 285 286 288 287 285 283 283 284 285 284 283 283 283 283 282 282 282 281 281 281 280 279 279 279 278 278 278 278 278 278 278 278 279 279 279 278 277
299 299 299 298 298 297 297 296 296 295 294 294 293 292 291 291 290 290 289 289 288 288 287 287 286 286 285 285 285 284 284 284 284 284 284 284 284 284 284 284 284 284 284 283 283 284 284 285 287 288 288 285 283 284 284 285 284 283 282 282 282 282 281 281 281 281 280 280 279 279 278 278 278 277 277 277 277 277 277 277 277 278 278 278 278
298 298 298 297 297 296 296 296 296 295 294 293 293 292 291 290 289 289 288 288 287 287 286 286 286 285 284 284 284 284 283 283 284 284 283 283 283 283 284 284 284 284 284 284 284 284 286 288 289 288 286 284 284 285 284 284 283 282 282 282 281 281 281 281 281 281 281 280 279 279 278 278 278 277 277 277 278 278 278 278 277 277 277 277 277
297 297 297 296 296 295 295 295 295 294 294 293 292 291 290 289 288 288 288 287 287 286 286 285 285 284 283 283 283 283 283 283 283 283 283 283 283 283 283 284 284 284 284 284 285 287 288 289 288 286 285 285 284 284 283 283 282 282 282 282 281 281 282 282 282 281 281 280 280 279 279 278 278 278 278 278 278 278 278 278 277 277 277 277 277
296 296 295 295 294 294 294 293 293 293 292 292 291 290 289 288 287 287 287 287 286 286 285 285 284 283 283 282 282 282 283 283 283 283 283 283 283 283 283 283 283 283 284 286 287 288 288 287 286 285 284 284 284 283 283 283 282 282 282 282 282 282 281 281 282 281 281 280 280 279 279 279 279 279 279 279 278 278 277 277 277 277 277 276 276
295 295 294 293 293 293 292 291 291 291 291 291 290 289 288 288 287 286 286 286 286 285 285 284 284 283 283 282 282 282 282 282 282 282 282 282 282 282 283 283 284 285 286 287 287 286 285 285 284 284 283 283 283 283 282 282 282 282 282 282 282 282 282 282 282 281 281 281 280 280 280 280 280 280 279 279 278 278 277 277 277 277 276 276 275
294 293 292 292 292 291 291 290 290 290 289 289 289 288 288 287 287 286 286 286 285 285 284 284 284 283 283 283 282 282 282 282 282 282 282 282 283 284 285 285 286 286 285 285 284 284 284 283 283 283 283 283 283 283 282 282 282 282 281 281 281 282 282 282 281 281 281 281 281 281 281 281 280 280 279 278 278 277 277 277 276 276 276 275 274
293 292 291 291 291 290 290 290 289 289 289 289 289 288 288 287 287 287 286 286 286 285 284 284 284 284 284 283 283 282 282 282 283 283 284 285 285 285 285 284 284 284 283 283 283 283 283 283 283 283 283 283 283 283 282 282 282 281 281 281 280 281 281 281 281 281 281 281 281 281 281 281 280 279 278 278 277 277 276 276 276 275 275 274 272
292 291 291 290 290 290 290 289 289 289 288 288 288 288 288 288 287 287 287 287 287 287 285 285 284 284 284 284 283 283 283 284 286 287 287 287 287 285 284 283 282 282 283 283 283 283 283 283 283 283 283 283 282 282 282 282 282 281 281 280 280 280 280 280 280 281 281 281 281 281 281 280 279 278 277 277 276 276 276 275 275 275 274 272 271
291 290 290 290 289 289 289 288 288 288 288 287 287 287 287 287 287 287 287 287 287 287 287 287 286 285 285 285 285 286 287 288 289 288 287 286 285 284 283 283 282 282 282 282 282 282 282 282 282 282 282 282 281 281 281 281 281 281 281 280 280 280 280 280 280 280 280 280 280 280 280 279 279 278 277 276 276 275 275 274 274 274 273 272 271
290 289 289 289 288 288 288 288 288 287 287 286 286 286 285 285 286 287 287 286 286 286 286 287 287 286 286 285 285 286 287 287 287 286 285 284 284 283 283 283 283 282 282 281 281 281 281 281 281 281 281 280 280 280 280 280 280 280 280 280 279 279 279 279 279 279 279 279 279 279 278 278 278 277 276 276 275 274 274 273 273 272 272 271 271
289 288 288 288 288 288 287 287 287 287 286 285 285 285 284 284 284 284 285 285 285 285 285 286 285 285 285 285 285 284 284 285 285 285 285 284 283 283 283 283 283 282 281 281 281 281 280 280 280 280 280 279 279 279 279 279 279 279 279 279 278 278 278 278 278 278 278 277 277 277 277 277 277 276 276 275 274 274 273 272 272 271 271 270 270
288 288 288 287 287 287 287 287 286 286 285 285 285 285 284 283 282 282 283 284 284 284 284 285 285 284 284 284 285 285 285 285 285 285 284 284 284 283 283 282 281 281 281 281 281 280 280 280 279 279 279 279 279 279 279 279 279 278 278 278 277 277 277 277 277 277 276 276 276 276 275 275 276 275 275 275 274 273 272 272 271 271 270 270 269
288 287 287 287 287 286 286 286 286 286 285 285 285 284 284 283 283 282 282 282 282 283 283 283 283 284 284 284 284 284 284 284 284 284 284 284 283 283 282 281 281 281 281 281 280 280 279 279 279 279 279 279 279 279 278 278 278 278 277 277 277 277 277 277 276 276 276 276 275 275 275 275 275 275 274 274 273 272 272 271 271 270 270 269 269
288 287 287 287 286 286 286 286 286 286 285 285 285 284 284 284 283 282 282 282 282 282 282 282 282 283 283 283 283 283 284 284 284 284 283 283 282 282 281 281 281 281 280 280 280 280 279 279 279 279 279 279 279 279 278 278 278 278 277 277 277 277 277 277 276 276 276 276 275 275 275 274 274 274 273 273 272 272 271 271 270 270 270 269 269
287 287 286 286 286 286 286 286 285 285 285 285 284 284 284 284 283 283 282 282 282 281 281 282 282 282 282 283 283 283 283 283 283 283 282 282 282 282 281 281 281 281 280 280 280 279 279 279 279 279 279 279 279 279 279 278 278 278 278 277 277 277 277 276 276 276 276 275 275 275 274 274 273 273 273 272 272 271 271 270 270 270 270 269 269
287 287 286 286 286 286 285 285 285 285 285 285 285 284 284 284 283 283 282 282 282 281 281 281 281 282 282 282 282 282 282 282 282 282 281 281 281 282 281 281 280 280 280 280 280 280 279 279 279 279 279 279 279 279 279 278 278 278 278 277 277 277 276 276 276 276 275 275 275 274 274 274 273 273 272 272 271 271 270 270 270 270 270 269 269
287 286 286 285 285 285 285 285 285 285 285 285 285 285 284 284 283 283 283 282 282 281 280 280 281 281 281 281 281 281 281 281 281 281 281 281 281 281 281 280 280 280 280 280 280 280 280 280 279 279 279 279 279 279 279 278 278 278 278 277 277 277 276 276 275 275 275 274 274 274 274 273 273 272 272 271 271 270 270 270 269 269 269 269 268
286 286 285 285 285 285 285 284 284 284 284 284 284 284 284 284 283 283 283 282 282 281 280 280 280 280 281 281 280 280 281 281 281 281 280 281 281 280 280 280 280 280 280 280 280 280 280 280 280 280 280 279 279 279 278 278 278 278 277 277 277 276 276 275 275 274 274 274 273 273 273 273 273 272 272 271 271 270 270 270 269 269 269 268 268
285 285 285 285 285 285 285 285 284 284 284 284 284 284 284 283 283 283 283 282 281 281 280 280 279 279 280 280 280 280 280 280 280 280 280 280 280 280 280 280 280 280 280 280 280 280 280 280 280 280 279 279 279 278 278 278 278 277 277 277 276 276 276 275 275 274 274 273 273 273 273 273 272 272 272 271 271 270 270 269 269 269 268 268 268
284 284 283 284 285 285 284 284 284 284 284 284 284 284 283 283 283 283 282 282 281 280 279 279 279 279 279 280 280 280 280 279 279 279 280 279 279 280 280 279 280 280 279 279 280 279 279 279 279 279 279 278 278 278 278 278 277 277 276 276 276 275 275 275 274 274 274 273 273 273 272 272 272 271 271 271 270 269 269 269 268 268 268 267 267
284 283 283 283 284 284 284 283 283 283 283 283 283 283 283 282 282 282 281 281 280 279 278 278 278 278 278 278 278 279 279 279 279 279 279 278 278 278 278 278 278 278 278 278 278 278 278 278 278 278 277 277 277 277 277 277 276 276 276 275 275 275 274 274 274 273 273 272 272 272 271 271 271 270 270 269 269 268 268 268 267 267 267 266 266
283 282 282 282 282 282 282 281 281 281 281 281 281 281 281 281 281 281 280 280 279 279 278 277 277 276 276 276 276 276 277 277 277 277 277 277 277 277 277 277 277 276 276 276 276 276 276 275 275 275 275 275 275 275 275 275 275 275 275 274 274 274 273 273 272 272 271 271 271 270 270 270 269 269 269 268 268 267 267 267 266 266 266 266 265
282 282 281 281 280 280 280 280 280 280 280 279 279 279 279 279 279 279 279 278 278 278 277 277 276 276 275 275 274 274 275 275 275 275 275 275 275 275 275 275 275 275 275 275 275 274 274 273 273 273 273 273 273 272 272 273 273 273 273 273 272 272 272 272 271 271 271 270 270 269 269 269 268 268 267 267 267 266 266 266 265 265 265 265 264
281 281 280 280 279 279 279 279 279 279 278 278 278 278 278 278 278 278 277 277 276 276 276 276 276 275 275 274 273 273 273 273 273 273 273 273 273 273 273 273 273 273 273 273 273 272 272 272 272 272 272 272 271 271 271 271 271 271 271 271 271 271 270 270 270 270 270 269 269 268 268 267 267 267 266 266 266 265 265 265 265 264 264 264 264
280 280 279 279 279 278 278 277 277 277 277 277 277 276 276 276 276 276 276 275 275 275 274 274 274 274 273 273 272 272 272 272 271 271 271 271 272 272 272 272 272 272 272 272 271 271 271 270 270 270 270 270 270 270 270 270 270 270 270 270 269 269 269 269 269 268 268 268 267 267 266 266 266 265 265 265 265 264 264 264 264 264 263 263 263
279 278 278 278 277 277 276 276 276 276 276 276 275 275 274 274 274 274 274 274 273 273 273 273 272 272 272 272 271 271 271 271 270 270 270 270 270 271 271 271 271 271 271 270 270 269 269 269 269 269 269 269 269 269 269 269 269 268 268 268 268 268 267 267 267 267 267 266 266 265 265 265 264 264 264 264 264 263 263 263 263 263 263 263 263
278 277 277 277 276 276 275 275 275 274 274 274 273 273 273 273 272 273 272 272 272 272 272 271 271 270 270 270 270 270 270 270 269 269 269 269 270 270 270 270 269 269 269 269 268 268 268 268 268 268 267 267 268 267 267 267 267 267 267 267 267 266 266 266 266 266 265 265 265 265 264 264 264 264 264 264 263 263 263 263 262 262 262 262 262
276 276 276 275 275 274 274 273 273 273 272 272 272 272 271 271 271 271 271 271 270 270 270 269 269 269 269 269 269 269 269 269 269 269 269 269 269 269 269 269 268 268 268 268 267 267 267 267 267 266 266 266 266 266 266 266 266 266 266 266 266 266 265 265 265 265 265 264 264 264 264 264 264 263 263 263 263 262 262 262 262 262 262 261 261
275 274 274 274 273 272 272 272 272 271 271 271 271 270 269 269 269 269 269 269 269 268 268 268 268 268 268 268 268 268 268 268 268 269 269 269 269 269 268 268 268 267 267 267 266 266 266 266 266 266 266 265 265 265 265 265 265 265 265 265 265 265 265 264 264 264 264 264 264 264 263 263 263 263 263 263 262 262 262 262 261 261 261 261 261
272 272 272 272 271 271 271 271 270 270 269 270 269 269 268 268 268 268 268 268 268 268 268 268 268 268 268 268 268 268 268 268 268 269 269 269 268 268 268 267 267 267 266 266 266 266 265 265 265 265 265 265 265 265 265 265 265 264 264 264 264 264 264 264 264 264 263 263 263 263 263 263 263 263 263 262 262 262 261 261 261 260 260 260 260
Wind_Speed
28 29 28 27 27 30 32 33 32 32 32 32 32 32 32 32 32 31 31 32 33 34 35 36 37 37 37 36 37 37 37 36 36 36 36 36 35 34 33 32 31 30 28 26 25 25 26 26 25 22 21 20 18 17 16 15 13 12 11 10 10 9 9 9 9 8 8 7 8 8 9 10 10 10 10 10 10 11 11 11 10 10 10 10 10
29 29 29 28 29 30 32 33 34 34 33 33 33 33 33 33 32 32 33 33 33 34 36 37 37 37 37 37 37 37 37 36 36 37 37 37 36 35 34 33 32 30 29 28 29 28 27 27 25 23 21 20 19 18 16 15 13 12 11 10 9 9 9 9 10 10 9 8 8 9 10 11 11 11 11 12 12 12 13 12 11 11 11 10 10
30 30 30 29 29 29 30 32 34 34 34 35 35 34 34 34 33 34 35 35 35 34 35 37 37 37 37 37 38 37 36 36 36 37 38 38 37 36 35 34 34 32 32 31 31 31 29 28 26 25 23 21 19 18 16 15 13 12 11 10 9 8 9 9 11 11 10 9 10 10 11 12 12 12 13 14 14 14 13 12 12 13 13 11 11
29 30 31 30 29 29 31 32 34 35 36 36 36 35 35 35 34 34 35 36 36 35 35 36 37 38 38 38 38 37 36 36 36 37 38 39 39 38 36 36 35 34 33 33 34 33 31 29 27 26 24 22 21 19 17 15 13 12 11 11 9 9 9 11 12 12 11 11 12 11 11 13 14 13 14 15 15 15 14 14 14 14 14 13 13
30 30 31 31 29 30 32 34 36 37 38 37 37 37 36 36 36 35 35 35 35 36 36 36 37 38 39 39 38 38 37 37 38 38 38 39 39 38 38 37 36 34 34 35 35 34 32 30 28 27 25 24 22 20 18 16 14 13 12 11 10 10 11 12 13 13 13 15 15 13 12 14 15 15 16 16 16 15 15 15 15 16 15 14 14
31 31 32 32 32 32 33 35 38 39 40 39 38 38 37 37 37 36 36 35 35 36 36 37 38 39 39 39 39 38 37 38 38 39 39 39 38 38 38 37 35 35 35 36 35 34 32 30 29 28 26 25 23 20 18 16 15 14 13 12 12 12 13 14 14 14 15 17 17 15 15 16 17 17 17 16 16 16 16 17 17 16 15 15 14
31 32 33 33 34 34 35 37 38 39 39 39 38 38 38 38 37 37 36 35 35 36 37 38 39 39 39 39 39 38 38 38 39 39 39 39 38 38 37 36 36 35 36 36 34 33 32 30 29 28 26 25 22 20 17 16 15 14 14 13 13 15 16 15 15 15 16 18 17 17 17 17 17 17 17 15 16 17 18 18 19 17 14 13 15
32 33 33 34 36 37 36 36 37 37 38 38 38 38 38 38 38 37 36 36 36 37 38 39 40 40 39 39 39 38 38 39 39 39 39 39 39 38 38 37 37 37 36 36 34 33 32 30 28 27 26 24 21 17 15 14 14 15 15 15 15 17 17 17 16 16 18 18 17 17 17 17 17 18 16 15 17 19 18 17 20 19 15 15 17
34 33 33 36 38 37 35 35 36 36 37 37 38 38 38 38 38 37 37 37 37 38 38 39 39 40 40 39 39 38 38 39 40 40 40 39 39 39 38 38 38 38 37 36 35 34 32 29 28 27 26 24 20 15 12 11 11 14 16 17 18 19 19 18 18 19 19 19 18 18 17 18 19 19 19 19 20 20 17 16 19 19 17 19 21
35 35 35 37 37 34 34 34 35 35 36 38 38 38 37 37 36 37 37 38 38 38 38 38 38 39 39 39 38 38 38 39 40 41 41 41 40 40 39 39 39 39 39 38 37 35 32 30 29 28 26 23 19 15 12 10 11 14 17 18 19 20 20 20 21 22 21 20 20 20 18 20 23 22 22 23 21 19 17 17 20 20 19 20 21
35 36 37 38 35 33 33 34 35 36 37 38 38 37 37 36 35 36 36 37 37 37 37 37 37 37 37 38 38 38 38 39 40 41 41 42 42 42 41 40 40 40 40 39 38 36 34 32 30 29 27 24 21 16 12 10 12 15 19 20 20 21 21 22 23 24 23 22 22 21 21 24 27 25 24 24 22 20 20 21 21 21 20 19 18
36 36 37 36 34 34 34 34 36 37 37 37 38 37 36 35 35 35 36 36 36 35 35 36 36 36 36 36 36 37 39 40 41 42 42 42 43 43 42 42 41 41 41 40 40 38 36 34 33 31 29 26 22 18 13 12 14 17 21 22 22 22 23 24 25 25 24 23 24 24 25 27 28 27 26 25 23 22 22 22 22 22 21 20 19
36 36 35 35 35 35 35 34 36 38 38 37 36 36 36 36 37 37 36 35 34 35 36 37 37 37 37 35 36 37 40 41 43 43 44 44 44 43 43 43 43 43 42 41 40 39 38 37 35 33 31 28 23 19 15 14 16 20 23 24 24 25 25 27 27 26 25 25 26 28 29 29 30 30 27 25 23 22 22 23 23 22 21 22 23
36 35 35 36 36 35 35 36 37 38 37 36 35 36 37 37 37 37 36 35 35 36 37 37 37 37 37 36 37 39 40 41 43 44 45 45 44 44 44 43 43 43 42 41 40 40 39 38 36 34 33 30 26 21 17 16 18 22 25 27 28 28 29 30 29 29 28 28 30 32 32 31 31 31 28 23 22 23 23 23 23 22 23 24 25
35 35 35 35 35 36 36 37 36 36 36 36 36 36 36 37 36 36 36 37 38 38 38 38 38 37 37 37 38 39 40 40 41 43 44 44 44 44 43 42 42 42 41 40 40 39 38 36 35 34 34 32 28 23 19 20 22 23 26 28 30 31 32 32 31 31 32 32 33 34 34 33 32 31 28 24 23 23 22 23 23 23 24 25 25
33 34 35 35 36 37 37 37 36 36 36 36 37 37 37 37 37 36 36 36 36 37 37 38 38 38 37 37 38 39 40 40 41 42 43 44 44 43 42 41 41 40 40 39 38 37 35 34 33 33 33 33 28 23 23 24 25 24 26 28 30 31 33 32 30 31 32 32 33 34 33 33 31 30 28 25 24 23 23 24 24 23 23 23 23
33 35 37 36 36 37 38 37 36 35 35 36 37 38 38 37 37 36 36 35 36 36 36 36 37 38 38 38 38 37 38 39 40 41 42 43 43 42 40 39 38 38 37 37 36 34 32 32 32 32 32 31 26 24 27 28 26 24 26 29 30 31 33 31 29 30 30 30 31 31 30 30 29 29 28 24 23 23 23 24 25 24 22 19 20
34 36 37 36 36 37 37 37 36 35 36 37 38 37 36 35 35 36 36 36 36 36 36 35 35 36 38 39 39 38 38 38 38 39 41 42 42 41 39 37 36 35 34 34 33 33 32 31 30 30 30 28 26 28 31 30 26 25 26 29 30 32 33 31 29 29 29 29 29 28 27 26 25 25 24 21 19 20 23 26 26 25 23 21 22
37 37 36 35 34 34 35 35 35 36 37 37 36 34 33 33 33 33 34 34 34 34 34 33 33 34 35 37 38 37 37 36 36 38 39 41 41 39 37 35 34 33 32 32 32 31 31 30 29 29 28 26 27 30 31 28 26 26 27 29 31 33 33 31 29 28 28 27 28 28 27 25 23 23 22 20 19 20 23 26 26 25 25 26 25
36 34 32 30 30 32 33 34 35 36 36 35 33 32 31 30 30 30 31 31 30 31 31 31 31 31 32 33 34 34 35 35 35 36 37 39 40 38 36 34 33 32 32 32 31 30 30 30 29 28 27 27 29 30 29 26 26 27 28 29 32 33 31 29 27 26 26 26 27 27 27 27 25 25 25 25 24 24 25 27 28 29 28 27 25
29 27 27 28 29 31 32 33 34 34 34 33 31 30 30 30 30 30 30 29 28 28 28 27 26 26 27 29 30 31 32 33 33 34 35 38 39 38 35 34 34 33 32 31 30 30 30 30 29 28 28 29 30 29 27 26 26 28 29 30 30 30 29 27 26 25 25 25 25 25 26 26 26 26 27 27 27 27 28 29 30 32 32 30 27
24 25 26 26 28 30 31 32 32 31 31 32 31 30 30 30 30 30 30 28 26 25 25 24 23 23 24 26 28 29 29 30 31 32 33 35 37 37 35 33 33 32 31 30 30 30 29 28 28 28 28 29 28 26 24 24 26 28 29 29 28 27 27 28 27 25 24 24 24 24 24 24 25 25 25 25 25 25 26 26 28 31 33 34 32
22 23 24 25 26 27 29 29 29 30 30 31 31 30 28 28 28 28 28 26 23 22 22 23 22 22 21 22 24 26 27 27 27 28 29 31 32 33 34 32 31 31 30 29 29 28 27 26 26 26 26 25 24 23 22 22 24 25 26 26 25 25 25 25 24 23 23 23 23 24 23 23 23 23 23 23 23 23 23 23 25 28 31 32 33
19 21 22 23 23 24 26 27 28 29 29 29 29 27 26 26 25 25 25 25 23 22 22 23 22 21 20 21 22 25 26 25 24 25 26 27 28 30 32 31 30 29 29 28 27 26 25 25 25 24 23 22 21 20 19 18 19 20 21 21 21 21 21 22 22 21 20 21 22 22 22 22 22 23 23 24 23 23 22 22 23 25 28 30 31
18 20 21 21 22 23 24 26 26 27 27 28 28 26 24 24 23 23 24 23 22 22 23 22 23 23 22 22 23 24 25 25 25 24 24 25 27 28 29 30 30 29 28 27 26 25 24 23 22 21 20 19 17 16 15 15 15 16 17 17 18 18 19 20 20 20 20 20 21 21 22 22 23 24 24 24 23 22 22 22 23 24 26 27 28
18 19 20 20 21 23 23 23 23 24 25 26 26 25 25 25 23 23 22 22 22 23 22 20 20 21 20 20 21 22 23 24 25 25 25 26 27 27 27 28 28 27 26 25 24 23 23 22 20 19 17 16 15 15 14 15 15 15 16 17 17 18 18 19 20 20 20 20 20 22 23 23 24 24 23 21 22 22 22 22 22 23 25 26 27
18 19 20 20 21 23 23 23 23 23 23 24 23 22 23 23 22 21 20 20 20 21 21 20 20 20 19 19 20 21 22 23 25 26 28 28 29 28 27 26 25 24 24 24 24 23 22 20 18 17 16 15 14 14 14 14 15 16 16 16 17 18 19 19 20 21 21 21 21 22 23 22 21 20 20 20 20 21 20 20 21 22 24 24 25
18 19 20 21 23 24 25 25 25 24 24 23 23 23 23 23 23 23 24 24 24 24 24 24 23 23 21 20 20 20 22 25 28 29 30 31 30 29 27 26 25 25 25 25 23 21 19 18 16 15 15 14 13 13 13 14 16 16 16 15 15 17 18 19 20 21 21 21 21 21 21 20 19 17 16 17 18 18 18 19 20 22 22 21 21
19 20 21 22 24 24 25 26 27 26 25 24 23 23 24 25 26 25 24 25 26 27 27 26 24 24 23 23 23 23 24 27 29 28 28 28 28 28 28 28 28 28 27 25 23 20 19 18 17 16 15 15 15 15 16 16 16 16 15 14 14 15 16 18 19 20 20 20 20 20 20 20 18 17 16 16 17 17 17 18 19 20 20 20 20
20 21 22 22 23 24 24 24 24 25 24 24 22 19 18 20 22 22 21 21 22 22 22 22 23 23 23 23 23 23 22 23 23 22 22 24 24 25 25 26 27 26 25 23 22 21 21 20 19 18 17 16 17 18 18 18 17 16 15 14 14 15 16 16 17 17 18 19 19 20 21 21 20 19 18 18 18 17 17 18 19 19 20 20 21
20 20 21 22 23 25 24 23 24 23 23 23 23 20 17 14 14 16 17 17 18 17 17 17 18 19 20 21 21 19 17 15 16 18 19 20 21 22 22 21 22 22 22 22 22 21 21 20 19 18 18 18 18 19 17 16 16 16 15 13 12 12 13 14 15 15 16 17 19 20 21 21 21 21 20 19 18 17 17 18 18 19 20 21 22
20 19 19 20 21 23 23 23 23 23 23 23 23 23 21 19 15 12 12 14 14 14 13 13 14 16 18 19 18 17 14 12 12 15 17 18 19 19 18 18 18 19 21 22 22 21 21 20 19 18 18 18 18 16 15 15 15 15 14 12 11 11 12 12 12 13 14 16 18 19 20 21 21 21 20 19 18 17 17 17 18 19 20 20 21
18 18 19 20 20 21 22 23 24 24 24 25 24 24 23 22 20 18 15 13 13 13 13 13 14 16 18 17 16 15 14 13 13 15 17 18 18 18 18 18 18 19 21 22 21 20 20 19 19 19 18 17 15 14 14 15 15 13 12 11 11 11 11 10 11 12 13 14 16 18 19 20 20 20 19 18 18 17 17 18 18 18 18 20 21
16 18 19 21 21 21 22 24 24 23 24 24 24 23 23 22 23 23 21 17 15 14 13 13 15 17 18 17 15 14 14 14 15 16 18 19 19 20 19 19 17 17 18 19 19 19 19 19 18 18 17 15 15 14 15 14 13 11 11 10 10 10 10 10 12 14 14 14 15 17 18 18 18 19 18 18 17 17 17 17 18 18 19 20 20
17 17 19 20 21 21 22 23 24 24 24 24 24 23 22 23 24 24 23 21 19 17 16 14 14 15 16 16 15 15 15 15 16 17 18 19 20 21 20 20 19 18 17 17 18 19 19 19 18 17 16 16 16 16 15 14 13 12 11 11 11 10 11 12 14 15 15 15 16 17 17 17 18 18 18 17 17 17 17 18 18 19 19 20 20
18 18 20 21 20 20 21 22 23 24 24 23 23 23 23 23 23 22 22 22 21 21 19 17 15 14 13 14 14 14 15 15 16 17 18 19 21 21 22 22 22 21 19 19 19 19 18 18 17 16 16 16 16 16 16 15 14 12 11 11 11 11 12 13 14 15 16 16 17 17 17 17 16 16 16 17 17 18 18 18 18 19 20 20 20
18 20 21 22 21 20 21 21 21 22 22 22 22 21 21 22 22 22 21 22 22 22 21 20 19 17 16 14 14 14 15 15 16 16 17 17 18 19 20 21 22 21 21 21 20 19 18 18 17 16 16 16 16 16 16 16 14 13 12 12 13 12 12 13 15 16 16 17 17 16 16 16 16 15 15 16 16 17 17 18 18 19 20 19 18
18 20 21 22 21 21 21 20 20 20 21 21 21 21 21 21 22 21 21 21 22 22 22 21 21 20 20 19 18 17 16 16 16 16 17 18 19 19 19 19 20 20 21 21 20 19 18 17 17 17 17 18 17 17 16 16 15 14 14 14 14 13 12 13 15 16 16 16 16 16 16 16 15 15 15 16 16 17 17 18 18 19 20 19 19
17 18 19 20 20 20 20 20 21 21 21 21 21 21 22 22 22 22 21 21 21 21 22 22 21 21 22 23 22 22 21 21 21 21 20 20 20 20 19 19 19 19 19 19 18 18 17 16 16 17 18 18 17 16 16 16 15 15 14 15 15 15 15 15 16 17 17 17 16 16 16 15 15 15 16 17 18 18 19 19 20 20 21 21 21
19 19 19 20 20 20 20 21 21 22 23 23 23 23 23 23 23 23 22 22 21 21 22 22 22 22 24 25 25 25 24 24 23 23 23 22 22 22 21 21 21 20 19 18 17 17 17 17 18 18 18 17 16 16 15 15 14 14 15 16 16 17 17 17 18 18 18 17 16 16 16 16 16 16 17 18 19 19 19 20 20 20 21 21 21
19 20 20 20 20 20 21 21 22 23 23 24 24 24 23 22 22 22 22 22 22 21 21 21 21 21 22 24 24 24 24 23 23 23 23 24 24 24 23 22 20 19 18 17 17 16 17 18 19 19 18 17 17 16 16 16 16 16 17 17 17 17 17 17 17 18 18 17 17 17 17 17 17 18 18 19 19 19 19 19 19 19 19 20 20
19 20 20 20 20 21 21 21 21 22 22 22 22 22 22 21 21 21 22 21 21 21 20 20 19 18 18 19 20 21 20 20 20 22 23 23 23 22 22 21 20 19 18 18 17 17 18 18 18 18 18 18 17 17 17 17 17 17 17 17 17 17 17 17 17 17 17 17 17 17 17 17 17 18 18 18 18 18 18 19 19 18 18 18 18
18 19 19 18 18 18 18 18 18 18 18 18 18 18 18 19 19 19 20 20 20 20 20 19 19 18 17 17 17 17 17 17 18 20 21 21 21 21 20 19 18 17 17 16 16 17 18 19 19 19 19 19 19 19 18 18 18 18 18 18 18 18 18 17 17 17 17 17 17 17 17 17 17 17 17 17 17 17 17 18 18 17 17 17 16
17 17 17 17 16 15 15 15 16 16 15 15 15 15 15 16 16 17 17 17 17 18 18 18 18 18 18 17 16 16 17 17 17 18 19 19 19 19 18 17 17 16 15 15 15 15 16 16 17 18 18 18 18 18 18 19 19 19 18 18 18 17 17 17 17 18 18 18 18 18 18 17 17 17 17 17 17 17 17 17 17 16 16 16 16
16 17 17 16 16 15 14 14 15 15 15 14 14 14 13 14 14 14 15 15 15 15 15 15 17 17 18 18 17 16 16 16 16 16 16 16 16 16 16 15 14 14 14 14 14 15 15 15 16 17 17 17 17 17 18 18 19 19 19 19 19 19 19 19 19 19 20 19 19 19 19 18 18 17 17 17 17 17 17 17 16 16 16 16 16
15 16 16 16 16 15 15 14 14 14 14 13 13 13 12 12 12 12 13 13 13 13 13 13 15 16 17 17 16 16 15 14 14 13 13 12 12 12 12 11 11 11 12 12 13 14 14 15 16 16 17 17 17 17 18 18 19 19 19 19 19 19 19 19 19 19 19 19 18 18 18 17 17 16 15 15 15 15 16 16 16 16 16 16 16
14 14 15 15 15 15 14 14 13 12 12 12 12 12 11 11 11 11 11 11 11 11 11 12 13 14 14 15 15 14 13 13 12 11 10 9 8 8 8 8 8 9 10 11 11 12 13 14 14 15 15 16 16 16 16 16 16 16 16 16 16 16 17 17 17 18 17 17 17 16 16 16 15 14 14 14 14 15 15 15 15 15 15 15 16
13 13 14 14 14 14 14 13 13 12 12 11 11 11 11 10 10 10 10 10 10 10 11 11 12 12 12 12 12 12 11 10 9 8 7 6 6 6 6 6 7 8 9 9 10 11 12 12 13 13 13 13 13 13 14 14 14 15 15 15 15 15 16 16 17 17 17 17 16 16 15 15 15 14 15 15 15 15 16 15 16 16 15 15 16
13 14 14 14 14 14 13 13 13 12 12 11 11 11 10 10 10 10 10 10 10 10 10 10 11 10 10 10 9 8 7 7 6 6 5 5 5 6 6 7 8 9 10 10 10 11 11 11 12 12 12 12 13 13 13 14 14 14 14 14 14 15 16 16 16 16 16 16 16 15 14 14 14 14 15 16 16 16 16 15 15 15 15 15 16
14 14 15 15 14 14 13 13 13 13 12 11 11 11 11 10 10 10 9 9 9 9 9 9 8 8 7 6 6 5 4 4 4 4 5 6 6 7 7 8 9 10 10 10 11 11 12 12 12 12 12 13 13 13 13 14 14 14 14 14 14 15 15 15 16 16 16 16 15 15 14 14 14 15 16 16 17 17 17 16 16 15 15 15 16
16 16 16 15 15 15 14 14 14 13 12 12 11 11 11 10 10 9 9 8 8 8 7 6 5 5 4 4 3 3 3 4 4 5 6 7 7 8 9 10 10 11 12 12 12 12 12 12 13 13 13 13 14 14 14 14 14 14 14 14 15 15 15 15 16 16 16 15 15 15 15 15 15 15 16 16 17 17 17 17 17 16 16 16 17
Wind_Direction
214 216 216 217 219 219 218 216 215 214 215 216 217 219 219 218 215 213 211 212 214 214 212 210 209 208 206 206 206 205 205 204 203 203 202 200 200 198 196 194 194 192 189 188 188 190 189 184 181 180 180 180 178 176 176 178 180 182 184 187 191 195 197 194 191 187 191 210 227 241 253 261 272 287 294 297 303 313 318 319 321 321 320 317 313
212 215 217 217 218 218 216 215 214 214 214 215 216 216 217 217 217 215 212 212 213 214 214 212 210 209 207 207 206 206 205 204 203 202 201 199 198 196 196 194 192 191 189 187 186 186 187 184 180 179 181 182 179 177 179 180 181 184 187 191 194 197 202 205 205 203 203 213 230 247 256 261 271 285 293 294 299 307 309 310 311 312 314 314 310
213 214 216 216 217 217 217 215 214 213 213 214 215 215 216 217 218 217 213 212 213 214 215 213 210 209 208 208 207 207 207 206 204 203 202 200 197 195 195 195 194 192 189 187 186 185 185 184 182 180 181 181 179 178 180 183 184 187 192 198 201 202 209 214 215 215 214 222 236 247 254 264 275 285 289 292 297 300 300 301 304 306 310 312 309
214 215 215 216 216 216 217 216 214 213 213 214 215 216 216 217 218 217 215 213 214 215 216 214 211 209 207 207 206 207 207 206 205 204 203 201 199 196 195 196 196 194 192 190 187 186 186 185 184 183 183 181 180 180 182 185 190 193 197 203 207 211 217 220 223 225 225 229 237 243 253 266 275 280 282 286 292 293 294 298 302 305 309 310 310
213 215 215 216 215 214 215 215 215 214 213 213 215 216 216 217 218 217 216 215 216 217 216 214 211 208 207 206 206 207 208 208 205 204 203 202 200 198 195 195 196 195 194 193 190 188 189 188 186 185 184 183 181 182 184 187 194 199 204 208 210 218 223 225 227 229 233 238 242 245 254 261 267 272 276 281 286 287 289 296 301 304 306 305 305
211 214 216 215 213 214 214 215 215 214 212 212 213 215 216 217 217 217 217 217 216 216 215 213 211 209 208 208 209 209 210 209 207 205 203 201 199 197 196 195 195 195 194 193 192 191 192 192 189 187 186 184 181 182 185 191 197 204 211 214 215 221 224 228 230 231 237 244 246 248 251 256 263 268 273 278 281 283 288 293 296 297 297 297 298
209 213 216 216 216 216 215 215 216 215 213 212 212 214 215 216 217 217 217 217 216 214 213 213 212 211 210 210 210 211 210 209 207 204 202 200 198 195 194 194 193 193 194 193 193 194 195 194 191 189 187 185 181 181 185 193 203 210 216 219 220 222 224 227 231 235 240 244 246 248 252 257 263 267 272 276 275 277 283 288 291 291 287 284 288
209 211 215 217 220 220 217 216 216 216 215 213 213 214 214 215 216 216 216 216 215 214 213 213 212 210 210 211 211 211 209 207 204 201 200 199 198 195 193 193 192 191 192 193 194 195 196 194 192 190 188 185 182 183 189 198 208 214 218 222 223 223 225 227 230 237 241 242 244 249 254 258 260 262 264 262 261 268 278 281 284 286 282 277 280
210 210 213 218 221 222 218 215 215 215 215 213 213 213 213 214 215 214 214 214 214 214 214 213 211 208 208 210 210 209 207 205 202 200 200 198 196 194 193 193 192 191 191 193 194 196 196 194 192 191 188 185 184 188 196 208 220 223 223 224 224 224 225 227 231 236 237 237 241 247 249 252 255 255 253 252 257 269 279 275 273 276 277 278 280
211 209 213 219 221 222 220 216 213 213 213 213 212 212 212 213 213 213 213 213 212 212 212 210 209 207 206 206 207 206 205 204 203 202 202 201 197 194 193 194 194 194 193 192 193 195 195 193 192 191 187 186 189 194 202 219 235 238 235 233 230 228 227 227 231 235 232 231 238 242 241 246 253 253 252 257 263 269 269 263 263 268 272 275 279
214 211 214 218 220 221 220 217 213 212 212 212 211 211 210 210 211 211 211 211 210 211 210 208 207 206 205 205 204 204 203 204 205 204 204 203 200 197 195 195 195 195 195 194 194 194 193 193 192 190 188 189 193 198 209 228 241 242 240 240 239 239 237 233 234 234 231 232 239 240 238 247 256 256 255 260 262 259 259 258 259 263 263 265 272
217 215 215 217 218 219 219 217 214 211 211 210 209 209 209 209 210 210 210 209 208 208 207 207 206 205 205 205 204 203 205 206 206 205 204 203 202 200 198 196 195 196 197 198 197 194 193 193 192 191 190 192 195 199 212 232 243 242 241 241 242 245 247 246 243 239 235 237 242 241 242 250 258 257 255 257 257 256 257 257 256 258 256 255 260
219 217 216 215 216 217 216 216 215 212 210 209 207 206 207 208 209 209 209 208 206 206 207 206 205 205 205 205 205 206 209 209 207 205 204 203 202 201 199 198 198 198 199 200 199 196 195 194 192 192 193 195 198 202 215 233 241 240 240 239 241 245 249 251 251 249 248 247 246 249 253 255 258 261 261 260 258 255 254 254 254 254 254 256 261
218 218 217 215 215 215 214 215 216 214 210 207 206 205 206 206 207 207 206 204 203 204 205 205 205 204 204 205 206 209 211 209 206 205 204 202 201 202 201 200 200 201 201 202 201 200 199 197 195 194 195 199 202 205 219 237 241 240 239 239 241 244 247 248 249 249 252 252 251 256 262 261 262 267 269 265 261 258 256 256 256 255 257 260 265
218 219 218 216 214 214 214 214 215 214 210 207 205 205 206 206 205 205 204 204 204 205 205 205 205 205 205 206 207 209 210 208 206 205 204 203 202 202 202 201 201 201 202 202 203 204 203 201 200 199 200 203 205 210 226 242 245 244 244 244 245 246 246 249 251 252 254 256 258 263 268 267 267 270 270 267 264 261 261 263 262 260 261 261 262
219 219 219 218 215 213 213 212 212 212 209 205 205 205 206 206 205 203 203 204 205 206 206 206 205 204 204 205 206 208 209 209 207 205 204 203 202 202 201 201 200 201 201 202 204 205 205 204 204 205 207 209 210 218 234 242 244 247 250 251 250 249 250 253 256 258 258 260 263 267 270 270 270 270 270 268 264 262 261 261 260 258 256 256 259
220 220 221 220 216 214 213 211 210 209 206 205 205 205 206 206 205 203 201 201 203 205 206 205 205 205 204 203 204 207 209 210 208 205 204 203 201 200 200 200 199 200 201 203 205 206 207 208 209 210 212 214 218 229 236 239 243 249 253 253 251 250 253 256 258 260 263 265 266 269 270 270 269 269 269 267 265 263 258 252 253 252 248 248 257
222 222 223 222 218 215 214 211 208 206 205 206 206 205 204 205 204 203 202 202 203 205 206 206 207 207 207 206 207 208 209 210 208 205 204 203 202 200 199 199 198 199 200 202 205 207 209 211 213 214 217 222 231 237 237 237 244 252 254 252 249 251 255 257 258 261 264 266 267 268 267 267 265 264 262 255 252 254 253 251 252 248 243 243 252
225 225 225 223 219 216 213 211 209 206 206 207 206 204 203 203 203 203 203 203 204 205 206 207 208 209 210 210 210 208 208 208 207 205 203 202 201 201 199 198 197 198 199 201 204 208 210 212 214 216 222 233 241 240 237 238 246 254 255 250 248 253 259 261 261 263 264 264 265 266 264 263 261 258 256 248 240 241 249 256 257 249 244 247 250
228 227 226 223 220 217 214 212 210 208 206 206 205 203 202 201 201 202 203 203 204 205 205 206 207 208 210 210 209 207 207 206 205 204 202 202 202 202 200 198 197 198 200 202 204 207 210 213 215 219 229 240 241 237 236 242 251 255 253 248 250 259 265 266 265 268 269 268 268 267 265 264 261 259 258 255 250 245 245 251 255 253 251 252 251
232 228 226 222 219 216 215 213 211 209 207 204 202 201 201 201 201 201 202 202 202 203 203 204 205 206 209 210 208 208 209 207 204 203 203 204 204 203 202 201 202 201 201 202 205 208 211 215 219 227 236 241 238 236 240 248 254 254 251 252 258 265 268 269 270 272 273 272 272 270 268 267 266 264 263 261 259 257 254 252 253 254 254 254 254
232 227 223 220 216 213 212 212 209 207 205 202 200 199 200 201 202 201 201 200 199 199 198 198 200 201 205 207 207 207 209 209 206 203 203 204 204 204 205 205 206 205 203 203 207 210 214 221 230 238 241 239 238 241 247 252 252 252 254 259 264 266 267 269 271 272 271 272 272 271 270 269 269 269 268 268 267 267 266 262 257 254 253 254 255
229 224 218 215 212 209 207 207 205 203 201 199 197 196 196 199 199 198 197 194 192 190 190 190 191 192 195 199 203 205 206 207 205 203 201 203 205 207 208 208 208 208 207 208 210 214 222 231 239 242 239 238 241 246 250 250 249 251 256 261 264 265 267 268 268 268 269 270 269 269 270 271 273 274 273 275 276 274 272 269 263 257 255 255 256
221 215 211 207 205 203 201 202 202 199 197 194 192 191 191 192 193 193 192 189 185 184 183 183 183 184 185 190 195 201 203 202 204 204 203 204 206 208 210 211 211 212 212 214 218 224 231 236 238 237 237 240 245 247 247 247 248 252 257 260 262 262 261 260 262 264 264 264 264 266 269 271 273 276 279 282 282 277 270 266 263 260 258 258 258
207 204 201 198 197 195 194 195 195 194 192 191 188 185 184 184 186 187 188 186 183 182 181 181 181 180 181 185 189 194 198 199 199 201 202 204 205 208 210 211 212 213 216 221 227 231 232 233 233 234 237 240 240 240 241 243 247 252 255 256 257 256 253 254 257 258 257 259 261 264 268 271 275 279 282 282 277 269 263 259 258 258 259 259 259
198 195 192 191 190 186 182 182 184 186 187 188 187 185 183 182 182 183 183 184 184 181 178 177 178 179 182 186 187 189 193 196 197 198 200 202 204 207 210 213 215 219 223 227 229 228 227 227 228 229 231 232 232 234 238 243 247 249 249 247 246 246 248 250 251 251 254 258 263 266 271 275 277 277 276 272 266 261 258 256 256 256 258 260 260
190 185 182 180 177 176 174 171 172 175 178 179 180 180 181 181 178 176 178 178 178 178 177 177 180 182 185 186 186 187 191 195 198 201 202 204 207 209 211 213 215 216 219 222 222 221 221 222 225 227 229 231 235 240 243 246 246 244 242 241 240 242 245 248 249 251 255 259 264 270 274 276 274 271 268 264 260 259 258 256 256 258 260 260 259
183 179 176 172 170 171 171 169 169 170 172 174 175 176 178 180 180 182 185 185 183 183 184 185 187 187 185 182 182 185 193 201 205 206 206 207 208 208 207 206 207 208 210 212 213 214 217 218 220 223 226 229 233 237 240 240 239 240 242 242 241 242 244 246 248 250 254 258 264 269 272 273 272 269 267 264 260 258 258 258 258 259 260 259 255
180 176 173 171 170 171 171 171 170 168 168 170 174 178 182 185 186 188 192 195 195 193 191 190 191 190 187 186 185 186 196 206 210 209 207 207 207 206 205 205 206 207 208 208 208 209 212 215 217 218 220 223 225 227 229 231 234 238 240 239 238 239 240 241 242 245 250 255 259 265 269 272 273 271 270 268 265 262 261 259 259 259 257 254 252
174 173 172 170 170 169 169 169 168 166 164 163 162 164 174 185 189 190 191 195 198 199 199 200 200 197 195 198 199 201 207 211 209 205 205 206 207 209 209 209 210 210 209 208 209 210 210 211 213 215 215 217 219 222 224 226 228 229 229 231 235 236 236 238 242 247 252 254 256 261 265 268 271 272 271 269 267 265 263 261 259 256 252 248 249
170 173 174 173 172 170 167 166 165 162 160 158 153 146 143 154 175 188 191 191 193 198 204 208 208 204 201 201 204 210 217 217 208 202 202 202 203 206 207 207 209 209 207 204 203 204 204 204 207 210 213 216 219 221 222 222 223 222 221 223 226 227 230 237 242 248 253 256 259 263 264 265 269 270 268 266 266 266 264 261 257 253 250 248 249
171 173 174 173 172 169 166 164 162 158 156 156 154 148 140 133 136 155 175 182 184 188 194 198 199 201 201 200 200 201 205 206 201 197 192 191 194 196 196 197 198 196 194 195 196 198 200 202 204 207 210 213 215 215 214 213 213 212 211 214 219 227 235 243 247 249 251 255 260 262 262 264 266 266 264 264 264 264 263 259 254 252 251 250 250
173 172 171 171 171 169 166 163 162 160 159 158 158 156 151 143 136 137 146 160 170 175 179 182 184 187 191 194 197 194 189 184 181 180 179 180 183 185 184 186 187 185 186 191 194 196 199 203 205 206 207 207 207 205 205 205 206 208 215 225 234 243 249 253 250 248 249 254 258 259 260 262 263 262 261 261 261 261 259 256 253 250 248 248 251
174 172 172 172 172 171 169 167 165 164 163 163 163 162 160 156 150 145 143 146 151 157 163 170 176 179 181 184 188 187 181 176 172 171 172 174 177 178 176 175 176 181 189 195 195 194 196 199 201 201 201 200 199 197 198 202 208 218 230 240 245 251 255 252 247 246 249 253 254 255 257 258 259 259 259 259 259 257 254 251 250 247 245 247 250
176 175 176 176 176 175 173 171 169 167 166 167 167 166 165 164 161 158 155 154 151 150 152 157 165 173 176 178 180 181 179 177 174 173 174 175 174 173 169 165 167 176 188 196 197 195 195 196 197 197 198 199 201 205 209 215 223 231 237 241 245 248 249 246 245 248 251 251 251 253 255 255 255 257 257 257 255 252 249 248 247 246 246 247 249
178 177 177 180 180 177 174 173 171 169 168 168 168 168 169 169 167 165 163 161 156 153 151 152 156 162 169 174 175 175 176 177 176 175 176 175 174 173 173 172 174 179 186 193 197 198 199 200 200 201 204 207 211 218 222 224 226 231 236 240 242 242 243 244 245 247 250 251 253 255 255 254 255 256 254 254 253 252 251 250 248 248 248 248 248
181 179 178 180 180 177 174 173 172 170 168 167 167 167 168 171 171 169 166 163 160 157 156 157 158 158 160 164 168 170 171 172 170 170 170 170 173 180 183 182 181 185 190 194 198 200 202 204 204 205 210 215 217 219 221 221 225 231 235 236 237 239 243 246 246 245 248 252 255 257 256 255 256 255 252 252 252 252 251 249 248 249 250 248 248
187 182 180 179 177 174 172 170 170 170 168 166 166 166 167 169 172 171 168 167 165 162 162 164 165 164 164 165 167 167 166 165 165 168 170 172 177 185 189 187 188 193 197 199 202 203 205 208 212 213 216 219 220 220 221 222 226 231 232 232 235 239 242 244 244 243 245 249 253 256 256 255 256 256 253 252 253 253 252 250 248 248 249 246 244
188 184 181 179 177 175 173 170 169 169 169 168 167 167 167 168 170 170 169 168 169 169 170 171 173 175 174 172 171 169 168 169 172 175 177 180 184 190 193 193 195 199 202 203 205 207 209 212 215 215 215 216 218 222 224 225 227 229 229 229 231 234 236 238 239 240 242 246 250 255 256 256 257 258 256 254 255 255 255 253 250 249 248 246 245
183 180 179 179 177 176 176 174 172 172 173 173 173 173 172 171 171 171 170 170 172 176 177 179 182 186 185 181 179 178 177 177 179 181 182 185 189 194 197 199 201 203 204 204 205 208 210 212 213 212 212 214 217 220 223 224 226 227 228 229 231 233 234 237 239 240 242 244 248 253 256 258 260 259 256 256 257 257 256 255 254 251 249 249 250
178 174 174 176 176 175 175 175 175 176 177 177 178 179 179 177 176 176 175 175 176 178 180 183 187 191 192 191 190 190 189 188 188 189 190 192 195 197 200 203 204 206 207 208 208 209 210 211 212 214 216 218 221 221 223 224 225 224 224 225 227 229 230 232 234 237 240 243 247 249 252 254 255 254 253 255 257 256 255 255 254 253 252 252 253
174 172 170 172 174 174 174 175 177 178 178 178 180 181 181 181 180 179 178 178 178 176 177 180 183 187 189 191 192 196 199 199 199 199 200 200 201 202 203 205 207 209 211 212 214 215 217 219 221 223 226 228 230 230 229 230 229 228 227 227 228 229 230 231 233 237 240 242 245 247 247 248 249 250 252 254 254 253 253 253 253 253 253 253 252
170 168 165 166 168 171 172 172 172 172 172 174 176 178 179 178 178 178 178 177 177 177 176 175 176 178 178 178 182 190 196 198 199 200 200 199 200 201 201 204 207 210 214 217 220 223 226 229 232 233 234 236 237 237 238 239 239 239 239 239 238 238 238 238 240 242 242 243 244 245 246 245 246 247 250 251 251 252 252 251 251 252 252 253 252
164 161 160 160 161 163 164 165 166 164 165 166 165 167 171 172 171 172 173 172 173 176 177 176 175 175 173 173 178 186 191 193 195 197 198 198 199 201 203 207 210 214 218 223 227 230 232 233 234 233 234 235 237 237 238 240 241 242 243 243 242 242 242 242 244 246 247 247 246 246 247 246 245 245 246 246 246 247 247 246 247 248 249 249 250
158 155 153 152 152 152 153 155 157 157 157 157 154 154 159 162 163 164 166 166 168 172 175 175 176 176 175 176 181 187 192 195 197 199 201 202 204 206 208 212 216 220 224 228 231 234 235 235 234 234 235 236 237 237 237 239 240 242 244 246 247 248 248 248 249 250 250 250 249 249 248 246 245 245 245 246 245 245 245 246 246 246 246 247 247
152 151 149 147 146 144 143 146 149 150 149 150 147 144 146 150 152 155 158 160 163 166 168 171 174 176 178 180 184 189 194 198 200 201 202 203 205 207 211 215 219 224 229 231 233 235 236 236 237 239 240 241 242 241 241 242 243 245 247 248 249 250 250 250 250 250 249 249 249 248 246 245 245 245 245 245 244 243 244 246 246 245 246 248 249
144 143 142 140 138 136 135 136 138 137 136 137 138 137 138 140 142 146 151 154 157 161 164 168 173 177 181 185 189 192 194 198 201 201 201 202 204 208 214 220 226 231 234 234 235 238 239 239 240 242 243 245 245 245 245 246 246 246 247 247 247 248 248 248 248 248 247 246 246 245 244 244 244 244 244 243 241 240 241 243 245 247 248 249 250
132 130 130 130 128 127 128 128 128 128 128 130 131 133 135 138 139 142 147 151 156 159 163 167 172 178 182 186 191 194 196 199 203 205 207 212 220 225 227 230 234 238 240 241 242 244 244 245 245 245 246 248 249 248 248 249 248 247 247 247 246 246 246 246 246 247 246 246 246 245 244 243 242 240 241 242 241 241 242 243 245 248 249 249 250
123 122 122 122 121 122 124 125 125 126 127 129 130 130 131 135 138 140 145 150 153 157 162 166 170 175 179 183 188 193 196 200 207 215 223 233 240 244 245 247 248 250 251 251 251 251 251 250 250 250 250 251 252 251 251 251 250 249 249 248 247 246 246 246 248 249 249 250 250 249 247 246 243 241 242 243 243 245 246 245 245 247 247 248 249
117 118 119 119 118 119 121 121 121 122 124 127 128 128 129 131 134 137 142 147 149 152 158 163 166 170 176 180 185 193 201 212 225 236 244 249 252 253 255 257 258 259 260 259 256 255 254 254 253 253 253 253 253 253 253 252 252 252 252 251 250 250 249 249 250 252 253 254 254 253 251 250 247 245 245 244 244 244 246 246 246 245 244 244 247
112 112 114 114 115 117 118 116 116 117 120 122 124 126 128 130 131 133 138 142 143 146 150 154 156 163 172 181 196 213 227 238 248 253 255 257 259 259 259 260 261 261 262 261 260 259 259 257 256 256 255 254 255 255 254 254 253 253 252 250 250 251 251 251 252 254 255 256 255 254 253 252 251 250 249 248 246 246 246 246 245 245 244 245 246